timestamp,wind_dir_avg,wind_spd_avg,wind_spd_max_dir,wind_spd_gust,battery_voltage,lat,long
2024-04-15 00:04:00+00:00,315.0,0.01,213.0,0.0,12.25,47.59359,-54.27349
2024-04-15 00:14:00+00:00,315.0,0.01,217.0,0.0,12.17,47.59359,-54.27349
2024-04-15 00:24:00+00:00,315.0,0.01,217.0,0.0,12.17,47.59359,-54.27349
2024-04-15 00:34:00+00:00,315.0,0.01,217.0,0.0,12.17,47.59359,-54.27349
2024-04-15 00:44:00+00:00,315.0,0.01,217.0,0.0,12.17,47.59359,-54.27349
2024-04-15 00:54:00+00:00,315.0,0.01,217.0,0.0,12.17,47.59359,-54.27349
2024-04-15 01:04:00+00:00,315.0,0.01,217.0,0.0,12.17,47.59359,-54.27349
2024-04-15 01:14:00+00:00,315.0,0.01,217.0,0.0,12.17,47.59359,-54.27349
2024-04-15 01:24:00+00:00,209.0,6.91,210.0,6.92,12.17,47.59359,-54.27349
2024-04-15 01:34:00+00:00,315.0,0.01,210.0,0.0,12.17,47.59359,-54.27349
2024-04-15 01:44:00+00:00,315.0,0.01,210.0,0.0,12.17,47.59359,-54.27349
2024-04-15 01:54:00+00:00,315.0,0.01,233.0,0.0,12.17,47.59359,-54.27349
2024-04-15 02:04:00+00:00,226.0,5.01,226.0,5.11,12.17,47.59359,-54.27349
2024-04-15 02:14:00+00:00,315.0,0.01,220.0,0.0,12.17,47.59359,-54.27349
2024-04-15 02:24:00+00:00,315.0,0.01,220.0,0.0,12.17,47.59359,-54.27349
2024-04-15 02:34:00+00:00,315.0,0.01,220.0,0.0,12.17,47.59359,-54.27349
2024-04-15 02:44:00+00:00,315.0,0.01,220.0,0.0,12.17,47.59359,-54.27349
2024-04-15 02:54:00+00:00,315.0,0.01,220.0,0.0,12.17,47.59359,-54.27349
2024-04-15 03:04:00+00:00,315.0,0.01,220.0,0.0,12.17,47.59359,-54.27349
2024-04-15 03:14:00+00:00,315.0,0.01,220.0,0.0,12.09,47.59359,-54.27349
2024-04-15 03:24:00+00:00,315.0,0.01,220.0,0.0,12.09,47.59359,-54.27349
2024-04-15 03:34:00+00:00,315.0,0.01,220.0,0.0,12.09,47.59359,-54.27349
2024-04-15 03:44:00+00:00,315.0,0.01,220.0,0.0,12.09,47.59359,-54.27349
2024-04-15 03:54:00+00:00,315.0,0.01,220.0,0.0,12.09,47.59359,-54.27349
2024-04-15 04:04:00+00:00,315.0,0.01,219.0,0.0,12.09,47.59359,-54.27349
2024-04-15 04:14:00+00:00,315.0,0.01,219.0,0.0,12.09,47.59359,-54.27349
2024-04-15 04:24:00+00:00,315.0,0.01,219.0,0.0,12.09,47.59359,-54.27349
2024-04-15 04:34:00+00:00,315.0,0.01,219.0,0.0,12.09,47.59359,-54.27349
2024-04-15 04:44:00+00:00,315.0,0.01,219.0,0.0,12.09,47.59359,-54.27349
2024-04-15 04:54:00+00:00,315.0,0.01,219.0,0.0,12.09,47.59359,-54.27349
2024-04-15 05:04:00+00:00,315.0,0.01,219.0,0.0,12.09,47.59359,-54.27349
2024-04-15 05:14:00+00:00,315.0,0.01,219.0,0.0,12.09,47.59359,-54.27349
2024-04-15 05:24:00+00:00,315.0,0.01,219.0,0.0,12.09,47.59359,-54.27349
2024-04-15 05:34:00+00:00,315.0,0.01,219.0,0.0,12.09,47.59359,-54.27349
2024-04-15 05:44:00+00:00,315.0,0.01,219.0,0.0,12.09,47.59359,-54.27349
2024-04-15 05:54:00+00:00,315.0,0.01,219.0,0.0,12.09,47.59359,-54.27349
2024-04-15 06:04:00+00:00,315.0,0.01,219.0,0.0,12.09,47.59359,-54.27349
2024-04-15 06:14:01+00:00,315.0,0.01,219.0,0.0,12.09,47.59359,-54.27349
2024-04-15 06:24:01+00:00,315.0,0.01,219.0,0.0,12.09,47.59359,-54.27349
2024-04-15 06:34:01+00:00,315.0,0.01,219.0,0.0,12.09,47.59359,-54.27349
2024-04-15 06:44:01+00:00,315.0,0.01,219.0,0.0,12.09,47.59359,-54.27349
2024-04-15 06:54:01+00:00,315.0,0.01,219.0,0.0,12.09,47.59359,-54.27349
2024-04-15 07:04:01+00:00,315.0,0.01,219.0,0.0,12.09,47.59359,-54.27349
2024-04-15 07:14:00+00:00,315.0,0.01,219.0,0.0,12.09,47.59359,-54.27349
2024-04-15 07:24:00+00:00,315.0,0.01,219.0,0.0,12.09,47.59359,-54.27349
2024-04-15 07:34:00+00:00,315.0,0.01,219.0,0.0,12.09,47.59359,-54.27349
2024-04-15 07:44:00+00:00,315.0,0.01,219.0,0.0,12.09,47.59359,-54.27349
2024-04-15 07:54:00+00:00,315.0,0.01,219.0,0.0,12.09,47.59359,-54.27349
2024-04-15 08:04:00+00:00,315.0,0.01,219.0,0.0,12.09,47.59359,-54.27349
2024-04-15 08:14:00+00:00,315.0,0.01,219.0,0.0,12.01,47.59359,-54.27349
2024-04-15 08:24:00+00:00,315.0,0.01,219.0,0.0,12.01,47.59359,-54.27349
2024-04-15 08:34:00+00:00,315.0,0.01,219.0,0.0,12.01,47.59359,-54.27349
2024-04-15 08:44:00+00:00,315.0,0.01,219.0,0.0,12.01,47.59359,-54.27349
2024-04-15 08:54:00+00:00,315.0,0.01,219.0,0.0,12.01,47.59359,-54.27349
2024-04-15 09:04:00+00:00,315.0,0.01,219.0,0.0,12.01,47.59359,-54.27349
2024-04-15 09:14:00+00:00,315.0,0.01,219.0,0.0,12.01,47.59359,-54.27349
2024-04-15 09:24:00+00:00,315.0,0.01,219.0,0.0,12.01,47.59359,-54.27349
2024-04-15 09:34:00+00:00,315.0,0.01,219.0,0.0,12.01,47.59359,-54.27349
2024-04-15 09:44:00+00:00,315.0,0.01,219.0,0.0,12.01,47.59359,-54.27349
2024-04-15 09:54:00+00:00,315.0,0.01,219.0,0.0,12.01,47.59359,-54.27349
2024-04-15 10:04:00+00:00,315.0,0.01,219.0,0.0,12.01,47.59359,-54.27349
2024-04-15 10:14:00+00:00,315.0,0.01,219.0,0.0,12.41,47.59359,-54.27349
2024-04-15 10:24:00+00:00,315.0,0.01,219.0,0.0,12.41,47.59359,-54.27349
2024-04-15 10:34:00+00:00,315.0,0.01,219.0,0.0,12.41,47.59359,-54.27349
2024-04-15 10:44:00+00:00,315.0,0.01,219.0,0.0,12.41,47.59359,-54.27349
2024-04-15 10:54:00+00:00,315.0,0.01,219.0,0.0,12.41,47.59359,-54.27349
2024-04-15 11:04:00+00:00,315.0,0.01,219.0,0.0,12.41,47.59359,-54.27349
2024-04-15 11:14:01+00:00,315.0,0.01,219.0,0.0,13.37,47.59359,-54.27349
2024-04-15 11:24:01+00:00,315.0,0.01,219.0,0.0,13.37,47.59359,-54.27349
2024-04-15 11:34:01+00:00,315.0,0.01,219.0,0.0,13.37,47.59359,-54.27349
2024-04-15 11:44:01+00:00,315.0,0.01,219.0,0.0,13.37,47.59359,-54.27349
2024-04-15 11:54:01+00:00,315.0,0.01,219.0,0.0,13.37,47.59359,-54.27349
2024-04-15 12:04:01+00:00,315.0,0.01,219.0,0.0,13.37,47.59359,-54.27349
2024-04-15 12:14:00+00:00,315.0,0.01,219.0,0.0,13.68,47.59359,-54.27349
2024-04-15 12:24:00+00:00,315.0,0.01,219.0,0.0,13.68,47.59359,-54.27349
2024-04-15 12:34:00+00:00,315.0,0.01,219.0,0.0,13.68,47.59359,-54.27349
2024-04-15 12:44:00+00:00,315.0,0.01,219.0,0.0,13.68,47.59359,-54.27349
2024-04-15 12:54:00+00:00,315.0,0.01,219.0,0.0,13.68,47.59359,-54.27349
2024-04-15 13:04:00+00:00,315.0,0.01,219.0,0.0,13.68,47.59359,-54.27349
2024-04-15 13:14:00+00:00,315.0,0.01,219.0,0.0,13.68,47.59359,-54.27349
2024-04-15 13:24:00+00:00,315.0,0.01,219.0,0.0,13.68,47.59359,-54.27349
2024-04-15 13:34:00+00:00,315.0,0.01,219.0,0.0,13.68,47.59359,-54.27349
2024-04-15 13:44:00+00:00,315.0,0.01,219.0,0.0,13.68,47.59359,-54.27349
2024-04-15 13:54:00+00:00,315.0,0.01,219.0,0.0,13.68,47.59359,-54.27349
2024-04-15 14:04:00+00:00,315.0,0.01,219.0,0.0,13.68,47.59359,-54.27349
2024-04-15 14:14:00+00:00,315.0,0.01,219.0,0.0,14.4,47.59359,-54.27349
2024-04-15 14:24:00+00:00,315.0,0.01,219.0,0.0,14.4,47.59359,-54.27349
2024-04-15 14:34:00+00:00,315.0,0.01,219.0,0.0,14.4,47.59359,-54.27349
2024-04-15 14:44:00+00:00,315.0,0.01,219.0,0.0,14.4,47.59359,-54.27349
2024-04-15 14:54:00+00:00,315.0,0.01,219.0,0.0,14.4,47.59359,-54.27349
2024-04-15 15:04:00+00:00,315.0,0.01,219.0,0.0,14.4,47.59359,-54.27349
2024-04-15 15:14:01+00:00,315.0,0.01,219.0,0.0,14.32,47.59359,-54.27349
2024-04-15 15:24:01+00:00,315.0,0.01,219.0,0.0,14.32,47.59359,-54.27349
2024-04-15 15:34:01+00:00,315.0,0.01,219.0,0.0,14.32,47.59359,-54.27349
2024-04-15 15:44:01+00:00,315.0,0.01,219.0,0.0,14.32,47.59359,-54.27349
2024-04-15 15:54:01+00:00,315.0,0.01,219.0,0.0,14.32,47.59359,-54.27349
2024-04-15 16:04:01+00:00,315.0,0.01,219.0,0.0,14.32,47.59359,-54.27349
2024-04-15 16:14:00+00:00,315.0,0.01,219.0,0.0,14.32,47.59359,-54.27349
2024-04-15 16:24:00+00:00,315.0,0.01,219.0,0.0,14.32,47.59359,-54.27349
2024-04-15 16:34:00+00:00,315.0,0.01,219.0,0.0,14.32,47.59359,-54.27349
2024-04-15 16:44:00+00:00,315.0,0.01,219.0,0.0,14.32,47.59359,-54.27349
2024-04-15 16:54:00+00:00,315.0,0.01,219.0,0.0,14.32,47.59359,-54.27349
2024-04-15 17:04:00+00:00,315.0,0.01,219.0,0.0,14.32,47.59359,-54.27349
2024-04-15 17:14:00+00:00,315.0,0.01,219.0,0.0,14.4,47.59359,-54.27349
2024-04-15 17:24:00+00:00,315.0,0.01,219.0,0.0,14.4,47.59359,-54.27349
2024-04-15 17:34:00+00:00,315.0,0.01,219.0,0.0,14.4,47.59359,-54.27349
2024-04-15 17:44:00+00:00,315.0,0.01,219.0,0.0,14.4,47.59359,-54.27349
2024-04-15 17:54:00+00:00,315.0,0.01,219.0,0.0,14.4,47.59359,-54.27349
2024-04-15 18:04:00+00:00,315.0,0.01,219.0,0.0,14.4,47.59359,-54.27349
2024-04-15 18:14:00+00:00,315.0,0.01,219.0,0.0,13.53,47.59359,-54.27349
2024-04-15 18:24:00+00:00,315.0,0.01,219.0,0.0,13.53,47.59359,-54.27349
2024-04-15 18:34:00+00:00,315.0,0.01,219.0,0.0,13.53,47.59359,-54.27349
2024-04-15 18:44:00+00:00,315.0,0.01,219.0,0.0,13.53,47.59359,-54.27349
2024-04-15 18:54:00+00:00,315.0,0.01,219.0,0.0,13.53,47.59359,-54.27349
2024-04-15 19:04:00+00:00,315.0,0.01,219.0,0.0,13.53,47.59359,-54.27349
2024-04-15 19:14:00+00:00,315.0,0.01,219.0,0.0,13.6,47.59359,-54.27349
2024-04-15 19:24:00+00:00,315.0,0.01,219.0,0.0,13.6,47.59359,-54.27349
2024-04-15 19:34:00+00:00,315.0,0.01,219.0,0.0,13.6,47.59359,-54.27349
2024-04-15 19:44:00+00:00,315.0,0.01,219.0,0.0,13.6,47.59359,-54.27349
2024-04-15 19:54:00+00:00,315.0,0.01,219.0,0.0,13.6,47.59359,-54.27349
2024-04-15 20:04:00+00:00,315.0,0.01,219.0,0.0,13.6,47.59359,-54.27349
2024-04-15 20:14:00+00:00,315.0,0.01,219.0,0.0,13.37,47.59359,-54.27349
2024-04-15 20:24:00+00:00,315.0,0.01,219.0,0.0,13.37,47.59359,-54.27349
2024-04-15 20:34:00+00:00,315.0,0.01,219.0,0.0,13.37,47.59359,-54.27349
2024-04-15 20:44:00+00:00,315.0,0.01,219.0,0.0,13.37,47.59359,-54.27349
2024-04-15 20:54:00+00:00,315.0,0.01,219.0,0.0,13.37,47.59359,-54.27349
2024-04-15 21:04:00+00:00,315.0,0.01,219.0,0.0,13.37,47.59359,-54.27349
2024-04-15 21:14:00+00:00,315.0,0.01,219.0,0.0,13.29,47.59359,-54.27349
2024-04-15 21:24:00+00:00,315.0,0.01,219.0,0.0,13.29,47.59359,-54.27349
2024-04-15 21:34:00+00:00,315.0,0.01,219.0,0.0,13.29,47.59359,-54.27349
2024-04-15 21:44:00+00:00,315.0,0.01,219.0,0.0,13.29,47.59359,-54.27349
2024-04-15 21:54:00+00:00,315.0,0.01,219.0,0.0,13.29,47.59359,-54.27349
2024-04-15 22:04:00+00:00,315.0,0.01,219.0,0.0,13.29,47.59359,-54.27349
2024-04-15 22:14:00+00:00,315.0,0.01,219.0,0.0,12.89,47.59359,-54.27349
2024-04-15 22:24:00+00:00,315.0,0.01,219.0,0.0,12.89,47.59359,-54.27349
2024-04-15 22:34:00+00:00,315.0,0.01,219.0,0.0,12.89,47.59359,-54.27349
2024-04-15 22:44:00+00:00,315.0,0.01,219.0,0.0,12.89,47.59359,-54.27349
2024-04-15 22:54:00+00:00,315.0,0.01,219.0,0.0,12.89,47.59359,-54.27349
2024-04-15 23:04:00+00:00,315.0,0.01,219.0,0.0,12.89,47.59359,-54.27349
2024-04-15 23:14:00+00:00,315.0,0.01,219.0,0.0,12.33,47.59359,-54.27349
2024-04-15 23:24:00+00:00,315.0,0.01,219.0,0.0,12.33,47.59359,-54.27349
2024-04-15 23:34:00+00:00,315.0,0.01,219.0,0.0,12.33,47.59359,-54.27349
2024-04-15 23:44:00+00:00,315.0,0.01,219.0,0.0,12.33,47.59359,-54.27349
2024-04-15 23:54:00+00:00,315.0,0.01,219.0,0.0,12.33,47.59359,-54.27349
